KD7RJ Weather Reports


time (UTC)temp
F
wind
direction
speed
knots
gust
knots
rain 1hr
in
rain 24hr
in
rain mn
in
humidity
%
barometer
mb
20260508221534 69 309 0.0 5.2 0.00 0.02 0.02 50 1020.7
20260508220018 68 337 0.9 7.8 0.02 0.02 0.02 50 1020.8
20260508214517 68 270 0.9 9.6 0.02 0.02 0.02 50 1020.8
20260508213116 67 230 0.0 7.0 0.02 0.02 0.02 54 1020.8
20260508211559 66 222 0.0 7.8 0.02 0.02 0.02 53 1020.8
20260508210041 65 218 1.7 7.8 0.00 0.00 0.00 53 1020.8
20260508204543 66 254 0.0 4.3 0.00 0.00 0.00 53 1020.8
20260508203023 64 187 0.0 7.0 0.00 0.00 0.00 55 1020.8
20260508201528 64 239 0.0 6.1 0.00 0.00 0.00 55 1020.9
20260508200004 63 211 0.0 5.2 0.00 0.00 0.00 56 1021.0
20260508194504 62 271 0.0 4.3 0.00 0.00 0.00 57 1021.0
20260508193117 62 254 0.0 5.2 0.00 0.00 0.00 58 1021.1
20260508191549 62 240 0.9 5.2 0.00 0.00 0.00 59 1021.1
20260508190035 61 259 2.6 7.0 0.00 0.00 0.00 58 1021.2
20260508184528 61 222 0.0 7.8 0.00 0.00 0.00 61 1021.3
20260508183010 59 247 3.5 8.7 0.00 0.00 0.00 61 1021.3
20260508181519 58 207 2.6 6.1 0.00 0.00 0.00 66 1021.2
20260508180059 58 294 1.7 6.1 0.00 0.00 0.00 67 1021.2
20260508174606 59 227 2.6 6.1 0.00 0.00 0.00 65 1021.1
20260508173031 57 210 3.5 7.0 0.00 0.00 0.00 71 1020.9
20260508171531 55 258 0.9 6.1 0.00 0.00 0.00 73 1020.8
20260508170014 55 257 2.6 6.1 0.00 0.00 0.00 72 1020.7
20260508164510 55 178 0.9 5.2 0.00 0.00 0.00 73 1020.5
20260508163057 55 175 0.0 4.3 0.00 0.00 0.00 75 1020.1
20260508161601 55 175 1.7 5.2 0.00 0.00 0.00 75 1020.3
20260508160036 54 175 0.9 6.1 0.00 0.00 0.00 76 1020.1
20260508154532 54 144 0.9 7.0 0.00 0.00 0.00 79 1019.9
20260508153016 53 168 2.6 7.8 0.00 0.00 0.00 81 1019.9
20260508151528 53 96 0.0 5.2 0.00 0.00 0.00 82 1019.8
20260508150056 52 90 0.9 6.1 0.00 0.00 0.00 83 1019.9
20260508144555 52 79 0.9 4.3 0.00 0.00 0.00 84 1019.9
20260508143038 52 71 0.0 4.3 0.00 0.00 0.00 85 1019.9
20260508141536 51 56 0.0 3.5 0.00 0.00 0.00 87 1019.8
20260508140016 51 55 0.0 1.7 0.00 0.00 0.00 88 1019.5
20260508134514 50 55 0.0 0.0 0.00 0.00 0.00 89 1019.2
20260508133111 50 55 0.0 0.0 0.00 0.00 0.00 89 1019.1
20260508131554 50 55 0.0 0.0 0.00 0.00 0.00 89 1018.8
20260508130035 50 55 0.0 0.0 0.00 0.00 0.00 88 1018.4
20260508124534 50 55 0.0 0.0 0.00 0.00 0.00 87 1018.1
20260508123014 51 55 0.0 0.0 0.00 0.00 0.00 87 1017.9
20260508121513 51 55 0.0 0.0 0.00 0.00 0.00 88 1017.8
20260508120056 51 55 0.0 0.0 0.00 0.00 0.00 88 1017.7
20260508114604 51 55 0.0 0.0 0.00 0.00 0.00 88 1017.7
20260508113037 51 55 0.0 0.0 0.00 0.00 0.00 87 1017.4
20260508111531 51 55 0.0 0.0 0.00 0.00 0.00 87 1017.2
20260508110020 51 55 0.0 0.0 0.00 0.00 0.00 88 1017.0
20260508104517 51 55 0.0 0.0 0.00 0.00 0.00 88 1016.9
20260508103017 51 55 0.0 0.0 0.00 0.00 0.00 89 1016.8
20260508101517 51 55 0.0 0.0 0.00 0.00 0.00 89 1016.7
20260508100016 51 55 0.0 0.0 0.00 0.00 0.00 88 1016.7
20260508094515 51 55 0.0 0.0 0.00 0.00 0.00 88 1016.5
20260508093015 51 55 0.0 0.0 0.00 0.00 0.00 87 1016.3
20260508091528 51 55 0.0 0.0 0.00 0.00 0.00 87 1016.2
20260508090116 51 55 0.0 0.0 0.00 0.00 0.00 86 1016.2
20260508084555 51 55 0.0 0.0 0.00 0.00 0.00 86 1016.1
20260508083054 51 55 0.0 0.0 0.00 0.00 0.00 85 1016.0
20260508081533 52 55 0.0 0.0 0.00 0.00 0.00 84 1015.9
20260508080031 52 55 0.0 0.0 0.00 0.00 0.00 82 1015.8
20260508074511 53 55 0.0 0.0 0.00 0.00 0.00 81 1015.8
20260508073010 54 55 0.0 0.0 0.00 0.00 0.00 80 1015.7
20260508071554 54 55 0.0 0.0 0.00 0.00 0.00 79 1015.7
20260508070053 54 55 0.0 0.0 0.00 0.00 0.00 78 1015.7
20260508064535 55 55 0.0 0.0 0.00 0.00 0.00 76 1015.6
20260508063043 56 55 0.0 0.0 0.00 0.00 0.00 74 1015.7
20260508061507 56 55 0.0 0.0 0.00 0.00 0.00 72 1015.6
20260508060005 57 55 0.0 0.0 0.00 0.00 0.00 69 1015.7
20260508054544 58 55 0.0 0.0 0.00 0.00 0.00 67 1015.7
20260508053052 59 55 0.0 0.0 0.00 0.00 0.00 64 1015.7
20260508051520 60 55 0.0 0.0 0.00 0.00 0.00 62 1015.6
20260508050015 61 55 0.0 0.0 0.00 0.00 0.00 58 1015.5
20260508044558 62 55 0.0 0.0 0.00 0.00 0.00 57 1015.5
20260508043056 62 55 0.0 3.5 0.00 0.00 0.00 56 1015.4
20260508041537 62 47 0.0 1.7 0.00 0.00 0.00 56 1015.4
20260508040036 63 47 0.0 0.0 0.00 0.00 0.00 57 1015.3
20260508034523 64 47 0.0 4.3 0.00 0.00 0.00 58 1015.2
20260508033022 64 38 0.9 3.5 0.00 0.00 0.00 57 1015.1
20260508031553 65 37 0.0 1.7 0.00 0.00 0.00 56 1014.9
20260508030051 66 37 0.9 4.3 0.00 0.00 0.00 55 1014.7
20260508024532 67 34 0.0 4.3 0.00 0.00 0.00 52 1014.8
20260508023032 68 36 0.0 3.5 0.00 0.00 0.00 51 1015.0
20260508021505 69 39 0.9 3.5 0.00 0.00 0.00 46 1015.0
20260508020001 71 44 1.7 5.2 0.00 0.00 0.00 43 1014.9
20260508014546 73 66 0.9 4.3 0.00 0.00 0.00 41 1015.1
20260508013045 73 61 0.0 4.3 0.00 0.02 0.00 41 1015.2
20260508011549 73 28 0.9 5.2 0.00 0.02 0.00 44 1015.3
20260508010057 74 179 0.0 0.0 0.00 0.02 0.00 43 1015.4
20260508004542 75 180 0.0 0.0 0.00 0.02 0.00 42 1015.5
20260508003040 74 180 0.0 4.3 0.00 0.04 0.00 44 1015.6
20260508001537 74 169 0.9 3.5 0.00 0.04 0.00 45 1015.7
20260508000044 73 251 0.0 4.3 0.00 0.04 0.00 44 1015.8
20260507234534 73 304 0.0 3.5 0.00 0.04 0.00 45 1016.0
20260507233038 72 256 0.0 1.7 0.00 0.04 0.00 45 1016.1
20260507231511 74 300 0.9 7.0 0.00 0.04 0.00 41 1016.3
20260507230019 74 332 1.7 6.1 0.00 0.04 0.00 43 1016.6
20260507224549 73 326 0.0 7.0 0.00 0.04 0.00 43 1016.8
20260507223132 71 327 0.9 4.3 0.00 0.04 0.04 44 1017.0